Location: Heiligenberg
(48.5381°N, 7.3897°E)
Time: 23:43:15
(UTC+00:00)

Meteor 1-28 Rocket - Pass Details

Date: 26 May 2022
Orbit: 499 x 518 km, 97.4° (Epoch: 02 July)

Event Time Altitude Azimuth Distance (km) Brightness Sun altitude
Exits shadow 02:04:34 15° 186° (S) 1,462 5.0 -12.0°
Maximum altitude 02:07:32 52° 260° (W) 645 3.4 -11.7°
Drops below altitude 10° 02:11:12 10° 338° (NNW) 1,737 6.3 -11.4°
Sets 02:13:20 0° 343° (NNW) 2,625 7.3 -11.1°
